Location: Hysolar-Haus
(48.7436°N, 9.0965°E)
Time: 01:01:52
(UTC+00:00)

Tiros 1 - All Passes

Search period start: 23 November 2019 00:00
Search period end: 03 December 2019 00:00
Orbit: 630 x 664 km, 48.4° (Epoch: 22 November)

Date Brightness Start Highest point End Pass type
(mag) Time Alt. Az. Time Alt. Az. Time Alt. Az.
23 Nov - 11:58:53 10° SSW 12:02:55 30° SSE 12:06:58 10° E daylight
23 Nov - 13:40:07 10° WSW 13:44:43 74° SSE 13:49:21 10° E daylight
23 Nov - 15:22:16 10° W 15:26:55 84° S 15:31:34 10° E daylight
23 Nov - 17:04:30 10° W 17:08:54 44° SSW 17:13:20 10° SE visible
23 Nov - 18:48:06 10° WSW 18:50:16 13° SW 18:52:27 10° SSW visible
24 Nov - 10:44:31 10° S 10:47:18 16° SE 10:50:04 10° E daylight
24 Nov - 12:24:17 10° SW 12:28:44 50° SSE 12:33:12 10° E daylight
24 Nov - 14:06:09 10° W 14:10:48 86° S 14:15:26 10° E daylight
24 Nov - 15:48:21 10° W 15:52:57 68° SSW 15:57:34 10° ESE daylight
24 Nov - 17:30:50 10° W 17:34:41 26° SW 17:38:34 10° SSE visible
25 Nov - 11:08:57 10° SSW 11:12:56 29° SSE 11:16:54 10° E daylight
25 Nov - 12:50:06 10° WSW 12:54:42 72° SSE 12:59:19 10° E daylight
25 Nov - 14:32:14 10° W 14:36:53 85° S 14:41:32 10° E daylight
25 Nov - 16:14:28 10° W 16:18:54 46° SSW 16:23:21 10° SE visible
25 Nov - 17:57:52 10° WSW 18:00:18 14° SW 18:02:44 10° S visible
26 Nov - 09:54:45 10° S 09:57:19 15° SE 09:59:53 10° ESE daylight
26 Nov - 11:34:18 10° SW 11:38:44 48° SSE 11:43:10 10° E daylight
26 Nov - 13:16:07 10° W 13:20:45 86° S 13:25:24 10° E daylight
26 Nov - 14:58:19 10° W 15:02:56 70° SSW 15:07:34 10° ESE daylight
26 Nov - 16:40:46 10° W 16:44:42 28° SW 16:48:39 10° SSE visible
27 Nov - 10:19:02 10° SSW 10:22:56 27° SE 10:26:50 10° E daylight
27 Nov - 12:00:05 10° WSW 12:04:41 70° SSE 12:09:17 10° E daylight
27 Nov - 13:42:12 10° W 13:46:51 86° S 13:51:30 10° E daylight
27 Nov - 15:24:26 10° W 15:28:53 48° SSW 15:33:21 10° SE daylight
27 Nov - 17:07:40 10° WSW 17:10:20 15° SW 17:12:59 10° S visible
28 Nov - 09:05:01 10° SSE 09:07:21 14° SE 09:09:40 10° ESE daylight
28 Nov - 10:44:19 10° SW 10:48:43 45° SSE 10:53:08 10° E daylight
28 Nov - 12:26:05 10° W 12:30:44 85° S 12:35:22 10° E daylight
28 Nov - 14:08:18 10° W 14:12:55 72° SSW 14:17:32 10° ESE daylight
28 Nov - 15:50:42 10° W 15:54:42 29° SSW 15:58:43 10° SSE daylight
29 Nov - 09:29:07 10° SSW 09:32:57 26° SE 09:36:45 10° E daylight
29 Nov - 11:10:04 10° WSW 11:14:40 67° SSE 11:19:16 10° E daylight
29 Nov - 12:52:10 10° W 12:56:49 87° S 13:01:28 10° E daylight
29 Nov - 14:34:24 10° W 14:38:53 51° SSW 14:43:22 10° SE daylight
29 Nov - 16:17:29 10° W 16:20:21 16° SW 16:23:12 10° S visible
30 Nov - 08:15:19 10° SSE 08:17:22 13° SE 08:19:25 10° ESE daylight
30 Nov - 09:54:20 10° SW 09:58:43 43° SSE 10:03:07 10° E daylight
30 Nov - 11:36:03 10° W 11:40:42 84° S 11:45:20 10° E daylight
30 Nov - 13:18:16 10° W 13:22:53 74° SSW 13:27:31 10° ESE daylight
30 Nov - 15:00:38 10° W 15:04:43 31° SSW 15:08:47 10° SSE daylight
01 Dec - 08:39:13 10° SSW 08:42:57 24° SE 08:46:41 10° E daylight
01 Dec - 10:20:03 10° WSW 10:24:39 65° SSE 10:29:14 10° E daylight
01 Dec - 12:02:08 10° W 12:06:48 87° S 12:11:26 10° E daylight
01 Dec - 13:44:22 10° W 13:48:52 53° SSW 13:53:22 10° SE daylight
01 Dec - 15:27:20 10° W 15:30:22 17° SW 15:33:24 10° S daylight
02 Dec - 07:25:42 10° SSE 07:27:24 12° SE 07:29:05 10° ESE daylight
02 Dec - 09:04:21 10° SW 09:08:43 41° SSE 09:13:04 10° E daylight
02 Dec - 10:46:01 10° W 10:50:41 83° S 10:55:18 10° E daylight
02 Dec - 12:28:14 10° W 12:32:52 76° SSW 12:37:29 10° ESE daylight
02 Dec - 14:10:35 10° W 14:14:43 33° SSW 14:18:51 10° SSE daylight
